User: anonymous   Login
Location: Meetinghouse Hill
(42.7686°N, 71.7752°W)
Time: 04:03:05
(UTC-05:00)
Language:

Iridium 34 - Orbit

View from above orbital plane
View from above orbital plane
View from above satellite
View from above satellite

Ground track
Ground track

The orbit data is extracted from the following two-line orbital elements,

1 24969U 97056E   17055.38290349  .00000167  00000-0  52600-4 0  9994
2 24969  86.3996   5.9686 0002177  87.6426 272.5019 14.34215176 16363
Epoch (UTC): 24 February 2017 09:11:22
Eccentricity: 0.0002177
inclination: 86.3996°
perigee height: 776 km
apogee height: 779 km
right ascension of ascending node: 5.9686°
argument of perigee: 87.6426°
revolutions per day: 14.34215176
mean anomaly at epoch: 272.5019°
orbit number at epoch: 1636

The dashed part of the orbit path shows where the satellite is in the earth's shadow,  

DLR